Location: Trebic
(49.2170°N, 15.8830°E)
Time: 22:54:13
(UTC+02:00)

Transit 2A Rocket - Pass Details

Date: 28 July 2019
Orbit: 590 x 913 km, 66.7° (Epoch: 18 August)

Event Time Altitude Azimuth Distance (km) Brightness Sun altitude
Rises 02:22:52 0° 203° (SSW) 3,510 - -19.4°
Reaches altitude 10° 02:25:26 10° 201° (SSW) 2,552 - -19.3°
Exits shadow 02:28:46 34° 191° (S) 1,404 5.8 -19.1°
Maximum altitude 02:31:19 65° 121° (ESE) 936 5.3 -18.9°
Drops below altitude 10° 02:36:49 10° 41° (NE) 2,394 8.7 -18.6°
Sets 02:39:10 0° 38° (NE) 3,279 9.8 -18.4°
